Weather History for Clintonville, WI

Change the Weather History Date:

Sunday, August 25, 2013

  Actual Average Record
Temperature  
Mean Temperature 81 °F -  
Max Temperature 93 °F 76 °F 93 °F (1953)
Min Temperature 69 °F 53 °F 35 °F (1977)
Cooling Degree Days 16    
Growing Degree Days 31 (Base 50)    
Moisture  
Dew Point 67 °F    
Average Humidity 66    
Maximum Humidity 83    
Minimum Humidity 43    
Precipitation  
Precipitation 0.00 in - - ()
Sea Level Pressure  
Sea Level Pressure 30.07 in    
Wind  
Wind Speed 9 mph (SW)    
Max Wind Speed 17 mph    
Max Gust Speed 23 mph    
Visibility 10 miles    
Events      
Averages and records for this station are not official NWS values.
T = Trace of Precipitation, MM = Missing Value Source: NWS Daily Summary

Daily Weather History Graph

Daily Weather History Graph

Search for Another Location

Airport:

Trip Planner

Search our weather history database for the weather conditions in past years. The results will help you decide how hot, cold, wet, or windy it might be!

Date:

Astronomy

Aug. 25, 2013 Rise Set
Actual Time 6:09 AM CDT 7:43 PM CDT
Civil Twilight 5:38 AM CDT 8:14 PM CDT
Nautical Twilight 5:01 AM CDT 8:51 PM CDT
Astronomical Twilight 4:21 AM CDT 9:30 PM CDT
Moon 9:59 PM CDT (8/25) 11:26 AM CDT (8/25)
Length of Visible Light 14h 35m
Length of Day
13h 33m
Waning Gibbous, 75% of the Moon is Illuminated
Aug 25
Waning Gibbous
Aug 28
Last Quarter
Sep 5
New
Sep 12
First Quarter
Sep 19
Full

Hourly Weather History & Observations

Time (CDT) Temp. Heat Index Dew Point Humidity Pressure Visibility Wind Dir Wind Speed Gust Speed Precip Events Conditions
12:15 AM 69.8 °F - 64.4 °F 83% 30.13 in 10.0 mi South 8.1 mph - N/A   Clear
12:35 AM 69.8 °F - 64.4 °F 83% 30.12 in 10.0 mi South 6.9 mph - N/A   Clear
12:55 AM 69.8 °F - 64.4 °F 83% 30.12 in 10.0 mi South 6.9 mph - N/A   Scattered Clouds
1:15 AM 69.8 °F - 64.4 °F 83% 30.13 in 10.0 mi South 5.8 mph - N/A   Mostly Cloudy
1:35 AM 69.8 °F - 64.4 °F 83% 30.13 in 10.0 mi South 5.8 mph - N/A   Mostly Cloudy
1:55 AM 69.8 °F - 64.4 °F 83% 30.12 in 10.0 mi South 5.8 mph - N/A   Mostly Cloudy
2:15 AM 69.8 °F - 64.4 °F 83% 30.12 in 10.0 mi SSW 6.9 mph - N/A   Scattered Clouds
2:35 AM 69.8 °F - 64.4 °F 83% 30.12 in 10.0 mi South 5.8 mph - N/A   Clear
2:55 AM 69.8 °F - 64.4 °F 83% 30.12 in 10.0 mi South 8.1 mph - N/A   Clear
3:15 AM 69.8 °F - 64.4 °F 83% 30.13 in 10.0 mi South 8.1 mph - N/A   Clear
3:35 AM 69.8 °F - 64.4 °F 83% 30.13 in 10.0 mi South 6.9 mph - N/A   Clear
3:55 AM 69.8 °F - 64.4 °F 83% 30.12 in 10.0 mi South 9.2 mph - N/A   Clear
4:15 AM 69.8 °F - 64.4 °F 83% 30.12 in 10.0 mi South 9.2 mph - N/A   Clear
4:35 AM 69.8 °F - 64.4 °F 83% 30.11 in 10.0 mi South 11.5 mph - N/A   Clear
4:55 AM 69.8 °F - 64.4 °F 83% 30.11 in 10.0 mi SSW 9.2 mph - N/A   Clear
5:15 AM 69.8 °F - 64.4 °F 83% 30.11 in 10.0 mi SSW 8.1 mph - N/A   Clear
5:35 AM 69.8 °F - 64.4 °F 83% 30.12 in 10.0 mi SSW 5.8 mph - N/A   Clear
5:55 AM 69.8 °F - 64.4 °F 83% 30.13 in 10.0 mi SSW 4.6 mph - N/A   Clear
6:15 AM 69.8 °F - 64.4 °F 83% 30.13 in 10.0 mi SSW 4.6 mph - N/A   Clear
6:35 AM 69.8 °F - 64.4 °F 83% 30.13 in 10.0 mi South 4.6 mph - N/A   Clear
6:55 AM 69.8 °F - 64.4 °F 83% 30.14 in 10.0 mi SSW 4.6 mph - N/A   Clear
7:15 AM 69.8 °F - 64.4 °F 83% 30.14 in 10.0 mi South 5.8 mph - N/A   Clear
7:35 AM 69.8 °F - 64.4 °F 83% 30.14 in 10.0 mi SSW 8.1 mph - N/A   Clear
7:55 AM 71.6 °F - 64.4 °F 78% 30.14 in 10.0 mi SSW 8.1 mph - N/A   Clear
8:15 AM 71.6 °F - 66.2 °F 83% 30.13 in 10.0 mi SSW 6.9 mph - N/A   Clear
8:35 AM 73.4 °F - 66.2 °F 78% 30.13 in 10.0 mi SSW 11.5 mph - N/A   Clear
8:55 AM 77.0 °F - 68.0 °F 74% 30.12 in 10.0 mi SW 12.7 mph - N/A   Clear
9:15 AM 77.0 °F - 68.0 °F 74% 30.11 in 10.0 mi SSW 11.5 mph - N/A   Clear
9:35 AM 78.8 °F - 68.0 °F 69% 30.11 in 10.0 mi SW 9.2 mph - N/A   Clear
9:55 AM 80.6 °F 83.2 °F 68.0 °F 65% 30.11 in 10.0 mi SW 12.7 mph 16.1 mph N/A   Clear
10:15 AM 80.6 °F 83.2 °F 68.0 °F 65% 30.10 in 10.0 mi WSW 11.5 mph - N/A   Clear
10:35 AM 82.4 °F 85.4 °F 68.0 °F 62% 30.10 in 10.0 mi SW 10.4 mph 18.4 mph N/A   Clear
10:55 AM 82.4 °F 85.4 °F 68.0 °F 62% 30.10 in 10.0 mi SW 10.4 mph 18.4 mph N/A   Clear
11:15 AM 84.2 °F 87.3 °F 68.0 °F 58% 30.09 in 10.0 mi SW 13.8 mph 18.4 mph N/A   Clear
11:35 AM 86.0 °F 90.4 °F 69.8 °F 58% 30.08 in 10.0 mi SW 11.5 mph - N/A   Clear
11:55 AM 87.8 °F 91.4 °F 68.0 °F 52% 30.07 in 10.0 mi SW 15.0 mph - N/A   Clear
12:15 PM 87.8 °F 91.4 °F 68.0 °F 52% 30.07 in 10.0 mi SW 11.5 mph 20.7 mph N/A   Clear
12:35 PM 87.8 °F 91.4 °F 68.0 °F 52% 30.06 in 10.0 mi SW 15.0 mph 21.9 mph N/A   Clear
12:55 PM 89.6 °F 93.4 °F 68.0 °F 49% 30.05 in 10.0 mi WSW 16.1 mph 23.0 mph N/A   Clear
1:15 PM 89.6 °F 93.4 °F 68.0 °F 49% 30.04 in 10.0 mi SW 13.8 mph 20.7 mph N/A   Clear
1:35 PM 89.6 °F 93.4 °F 68.0 °F 49% 30.04 in 10.0 mi SW 17.3 mph 23.0 mph N/A   Clear
1:55 PM 91.4 °F 95.4 °F 68.0 °F 46% 30.04 in 10.0 mi WSW 12.7 mph 23.0 mph N/A   Clear
2:15 PM 91.4 °F 95.4 °F 68.0 °F 46% 30.03 in 10.0 mi SW 16.1 mph 23.0 mph N/A   Clear
2:35 PM 91.4 °F 95.4 °F 68.0 °F 46% 30.03 in 10.0 mi SW 13.8 mph 20.7 mph N/A   Clear
2:55 PM 91.4 °F 95.4 °F 68.0 °F 46% 30.03 in 10.0 mi SW 12.7 mph 18.4 mph N/A   Clear
3:15 PM 93.2 °F 97.7 °F 68.0 °F 44% 30.02 in 10.0 mi SW 16.1 mph 21.9 mph N/A   Clear
3:35 PM 91.4 °F 94.0 °F 66.2 °F 43% 30.02 in 10.0 mi WSW 13.8 mph 18.4 mph N/A   Clear
3:55 PM 91.4 °F 94.0 °F 66.2 °F 43% 30.01 in 10.0 mi SW 13.8 mph 19.6 mph N/A   Clear
4:15 PM 91.4 °F 94.0 °F 66.2 °F 43% 30.01 in 10.0 mi WSW 13.8 mph 20.7 mph N/A   Clear
4:35 PM 91.4 °F 94.0 °F 66.2 °F 43% 30.01 in 10.0 mi SW 11.5 mph 19.6 mph N/A   Clear
4:55 PM 91.4 °F 94.0 °F 66.2 °F 43% 30.01 in 10.0 mi SW 11.5 mph 21.9 mph N/A   Clear
5:15 PM 91.4 °F 94.0 °F 66.2 °F 43% 30.01 in 10.0 mi SW 10.4 mph 19.6 mph N/A   Clear
5:35 PM 89.6 °F 92.2 °F 66.2 °F 46% 30.02 in 10.0 mi SW 8.1 mph - N/A   Clear
5:55 PM 89.6 °F 92.2 °F 66.2 °F 46% 30.01 in 10.0 mi SW 10.4 mph - N/A   Clear
6:15 PM 89.6 °F 92.2 °F 66.2 °F 46% 30.01 in 10.0 mi SW 9.2 mph 16.1 mph N/A   Clear
6:35 PM 87.8 °F 90.4 °F 66.2 °F 49% 30.02 in 10.0 mi SW 9.2 mph - N/A   Clear
6:55 PM 87.8 °F 91.4 °F 68.0 °F 52% 30.02 in 10.0 mi SW 9.2 mph - N/A   Clear
7:15 PM 86.0 °F 89.4 °F 68.0 °F 55% 30.02 in 10.0 mi SSW 4.6 mph - N/A   Clear
7:35 PM 84.2 °F 87.3 °F 68.0 °F 58% 30.02 in 10.0 mi SW 8.1 mph - N/A   Clear
7:55 PM 84.2 °F 87.3 °F 68.0 °F 58% 30.03 in 10.0 mi SW 10.4 mph - N/A   Clear
8:15 PM 82.4 °F 85.4 °F 68.0 °F 62% 30.03 in 10.0 mi SW 8.1 mph - N/A   Clear
8:35 PM 80.6 °F 83.2 °F 68.0 °F 65% 30.04 in 10.0 mi SSW 5.8 mph - N/A   Clear
8:55 PM 80.6 °F 83.2 °F 68.0 °F 65% 30.04 in 10.0 mi South 5.8 mph - N/A   Clear
9:15 PM 78.8 °F - 68.0 °F 69% 30.04 in 10.0 mi SSW 4.6 mph - N/A   Clear
9:35 PM 78.8 °F - 68.0 °F 69% 30.05 in 10.0 mi SW 8.1 mph - N/A   Clear
9:55 PM 80.6 °F 83.2 °F 68.0 °F 65% 30.05 in 10.0 mi WSW 10.4 mph - N/A   Clear
10:15 PM 80.6 °F 83.2 °F 68.0 °F 65% 30.05 in 10.0 mi SW 8.1 mph - N/A   Clear
10:35 PM 80.6 °F 83.2 °F 68.0 °F 65% 30.05 in 10.0 mi SW 6.9 mph - N/A   Clear
10:55 PM 78.8 °F - 68.0 °F 69% 30.04 in 10.0 mi SW 9.2 mph - N/A   Clear
11:15 PM 78.8 °F - 68.0 °F 69% 30.04 in 10.0 mi SW 6.9 mph - N/A   Clear
11:35 PM 78.8 °F - 68.0 °F 69% 30.03 in 10.0 mi SW 8.1 mph - N/A   Clear
11:55 PM 78.8 °F - 68.0 °F 69% 30.02 in 10.0 mi SW 6.9 mph - N/A   Clear